Galeforce Spring Challenge Sportive - Monday 9th April 2012

 

54 Miler

FirstName LastName Race No Finish Status Time Club 1st Leg 1st Leg Miles 1st Leg Speed 2nd Leg 2nd Leg Miles 2nd Leg Speed
Stephen Leask 4 Finished 03:10:26   01:43:34 29 16.8 m/hr 01:26:51 25 17.3 m/hr
Leigh Pilgrim 6 Finished 03:18:44 AFF Flyers & Boxfit 01:51:50 29 15.6 m/hr 01:26:54 25 17.3 m/hr
Aidan Mcalinden 5 Finished 03:26:57   01:51:05 29 15.7 m/hr 01:35:52 25 15.6 m/hr
Stephen Walton 48 Finished 03:27:54   01:51:44 29 15.6 m/hr 01:36:09 25 15.6 m/hr
Stephen Goodlad 18 Finished 03:30:07 Leighton Buzzard Tri 02:02:03 29 14.3 m/hr 01:28:04 25 17.0 m/hr
Oswin Grady 3 Finished 03:31:30   02:01:47 29 14.3 m/hr 01:29:43 25 16.7 m/hr
Emma Templeton 45 Finished 03:35:03 Army 02:01:54 29 14.3 m/hr 01:33:08 25 16.1 m/hr
Simon Foster 2 Withdrawn during race   Bedford Traktors   29     25  

 

64 Miler

FirstName LastName Race No Finish Status Time Club 1st Leg 1st Leg Miles 1st Leg Speed 2nd Leg 2nd Leg Miles 2nd Leg Speed
Toby Stanbrook 42 Finished 03:31:25   01:38:10 29 17.7 m/hr 01:53:15 35 18.5 m/hr
Natasha Pitman 38 Finished 03:35:24 Freedom Tri 01:59:37 29 14.5 m/hr 01:35:47 35 21.9 m/hr
Jon Mariano 32 Finished 03:35:54   01:59:41 29 14.5 m/hr 01:36:13 35 21.8 m/hr
Chris Mcque 34 Finished 03:36:09 Freedom Tri 02:00:21 29 14.5 m/hr 01:35:47 35 21.9 m/hr
Steve Le Page 26 Finished 03:42:58 Beds Road CC 01:43:35 29 16.8 m/hr 01:59:22 35 17.6 m/hr
Robert Cornfoot 13 Finished 03:49:29   01:43:31 29 16.8 m/hr 02:05:57 35 16.7 m/hr
Simon Haswell 19 Finished 03:50:15   01:43:33 29 16.8 m/hr 02:06:42 35 16.6 m/hr
Tony Runnegar 7 Finished 03:58:06 Bedford Traktors 01:48:22 29 16.1 m/hr 02:09:43 35 16.2 m/hr
Gerry Corrance 14 Finished 04:00:31   01:51:49 29 15.6 m/hr 02:08:41 35 16.3 m/hr
Alan Day 52 Finished 04:03:23   01:51:36 29 15.6 m/hr 02:11:47 35 15.9 m/hr
Harry Smith 41 Finished 04:06:09   01:50:51 29 15.7 m/hr 02:15:17 35 15.5 m/hr
Jack Lundgren 31 Finished 04:06:11   01:50:57 29 15.7 m/hr 02:15:14 35 15.5 m/hr
Garry Milner 36 Finished 04:08:06 Flitwick Tri 01:55:32 29 15.1 m/hr 02:12:33 35 15.8 m/hr
Michael Mello 35 Finished 04:15:54 Bedford Harriers 01:59:34 29 14.6 m/hr 02:16:20 35 15.4 m/hr
Paul Veitch 47 Finished 04:17:10 Nice Tri 01:57:38 29 14.8 m/hr 02:19:32 35 15.0 m/hr
Ruth Chamberlain 10 Finished 04:17:20 Nice Tri 01:57:50 29 14.8 m/hr 02:19:30 35 15.1 m/hr
Drew Lowrie 30 Finished 04:18:12 Team Trisports 02:00:22 29 14.5 m/hr 02:17:49 35 15.2 m/hr
Tim Smith 53 Finished 04:18:12   02:00:21 29 14.5 m/hr 02:17:51 35 15.2 m/hr
Karl Hiner 21 Finished 04:30:43   02:05:26 29 13.9 m/hr 02:25:17 35 14.5 m/hr
Elizabeth Hiner 20 Finished 04:30:58   02:05:22 29 13.9 m/hr 02:25:36 35 14.4 m/hr
Joseph Keane 22 Finished 04:33:10   02:03:52 29 14.0 m/hr 02:29:18 35 14.1 m/hr
Nick Esh 15 Finished 04:50:17   02:04:13 29 14.0 m/hr 02:46:03 35 12.6 m/hr
Jonathan Wilson 51 Finished 04:53:01 i-cycle 02:03:50 29 14.1 m/hr 02:49:11 35 12.4 m/hr
James Wilson 50 Finished 04:53:58 BCTTT 02:03:23 29 14.1 m/hr 02:50:34 35 12.3 m/hr
Tom Garfath 17 Finished 04:57:19   02:03:25 29 14.1 m/hr 02:53:53 35 12.1 m/hr
Jake Knight 25 Withdrawn during race     01:50:59 29 15.7 m/hr   35